Satellite: NOAA-17
Catalog number: 27453
Epoch time:      05047.40454147
Element set:    0257
Inclination:      098.6742 deg
RA of node:       122.6938 deg
Eccentricity:    0.0012482
Arg of perigee:   050.1092 deg
Mean anomaly:     310.1182 deg
Mean motion:   14.23632263 rev/day
Decay rate:       1.70e-06 rev/day^2
Epoch rev:           13765
Checksum:              277

/EX
SB KEPS @ AMSAT  $ORB05048.M
Orbital Elements  05048.MISC

HR AMSAT ORBITAL ELEMENTS FOR MANNED AND MISCELLANEOUS SATELLITES
FROM WA5QGD FORT WORTH,TX February 17, 2005
SEND SUBSCRIBE/UNSUBSCRIBE TO majordomo@amsat.org ONLY
BID: ORB05048.M
TO ALL RADIO AMATEURS BT

Satellite: HUBBLE
Catalog number: 20580
Epoch time:      05047.93473688
Element set:    0285
Inclination:      028.4692 deg
RA of node:       332.2438 deg
Eccentricity:    0.0003663
Arg of perigee:   080.1684 deg
Mean anomaly:     279.9319 deg
Mean motion:   14.99593115 rev/day
Decay rate:      1.035e-05 rev/day^2
Epoch rev:           61217
Checksum:              316

Satellite: UARS
Catalog number: 21701
Epoch time:      05047.67481040
Element set:    0380
Inclination:      056.9818 deg
RA of node:       318.5485 deg
Eccentricity:    0.0006920
Arg of perigee:   100.5109 deg
Mean anomaly:     259.6687 deg
Mean motion:   15.03759190 rev/day
Decay rate:       -7.6e-07 rev/day^2
Epoch rev:           73536
Checksum:              303

Satellite: PO-34
Catalog number: 25520
Epoch time:      05047.98538885
Element set:    0120
Inclination:      028.4606 deg
RA of node:       035.8122 deg
Eccentricity:    0.0005129
Arg of perigee:   353.2709 deg
Mean anomaly:     006.7817 deg
Mean motion:   15.16108024 rev/day
Decay rate:      1.290e-05 rev/day^2
Epoch rev:           34832
Checksum:              285

Satellite: ISS
Catalog number: 25544
Epoch time:      05047.85552241
Element set:    0830
Inclination:      051.6387 deg
RA of node:       156.2891 deg
Eccentricity:    0.0004629
Arg of perigee:   101.3128 deg
Mean anomaly:     355.9772 deg
Mean motion:   15.69888029 rev/day
Decay rate:    1.42249e-03 rev/day^2
Epoch rev:           35676
Checksum:              327

Satellite: OO-38
Catalog number: 26063
Epoch time:      05047.56376997
Element set:    0287
Inclination:      100.2269 deg
RA of node:       245.4320 deg
Eccentricity:    0.0037043
Arg of perigee:   035.2151 deg
Mean anomaly:     325.1484 deg
Mean motion:   14.35702122 rev/day
Decay rate:        3.4e-07 rev/day^2
Epoch rev:           26499
Checksum:              289

Satellite: NO-45
Catalog number: 26932
Epoch time:      05047.66568422
Element set:    0966
Inclination:      067.0579 deg
RA of node:       177.8419 deg
Eccentricity:    0.0008898
Arg of perigee:   269.8100 deg
Mean anomaly:     090.1962 deg
Mean motion:   14.29470016 rev/day
Decay rate:       -3.0e-07 rev/day^2
Epoch rev:           17657
Checksum:              339

/EX




----
Via the keps mailing list at AMSAT.ORG courtesy of AMSAT-NA.
To unsubscribe, send "unsubscribe keps" to Majordomo@amsat.org

--- ViaMAIL!/WC v1.60d
 * Origin: Chowdanet (401-331-0615) telnet://chowdanet.com  (1:323/120)